Date String (YYYY-MM-DD hh:mm:ss) UTC,Instrument flags,Ambient pressure (hPa),Sample flow (lpm),Bypass flow (lpm),Sample temperature (°C),Ambient temperature (°C),ASC tube jacket temperature (°C),LED temperature (°C),Box temperature (°C),Sample RH (%),Span deviation,Mass concentration (μg/m³),Mass concentration (μg/m³),Mass concentration (μg/m³)
DateTimeUTC,F1_M11,P_M11,Q1_M11,Q2_M11,T1_M11,T2_M11,T3_M11,T4_M11,T5_M11,U1_M11,ZSPAN_M11,X0_M11,X2_M11,X1_M11
2022-12-07 11:00:00,,0826.0,4.99,0.00,22.0,21.9,00.0,30.8,24.0,09.7,0000.0,0005.03,0002.75,0001.97
2022-12-07 11:01:00,,0826.0,4.99,0.00,22.1,21.6,00.0,30.9,24.0,09.7,0000.0,0004.96,0002.73,0001.97
2022-12-07 11:02:00,,0826.0,5.00,0.00,22.1,21.3,00.0,30.9,24.0,09.7,0000.0,0004.74,0002.65,0001.95
2022-12-07 11:03:00,,0826.0,5.00,0.00,22.1,21.1,00.0,30.9,24.0,09.7,0000.0,0004.78,0002.66,0001.95
2022-12-07 11:04:00,,0826.1,5.00,0.00,22.1,20.9,00.0,30.9,23.9,09.7,0000.0,0004.88,0002.66,0001.94
2022-12-07 11:05:00,,0826.2,5.00,0.00,22.0,20.8,00.0,30.9,23.9,09.7,0000.0,0004.94,0002.68,0001.95
2022-12-07 11:06:00,,0826.2,5.02,0.00,22.0,20.7,00.0,30.9,23.9,09.7,0000.0,0005.06,0002.69,0001.95
2022-12-07 11:07:00,,0826.2,5.00,0.00,22.0,20.7,00.0,30.9,23.8,09.7,0000.0,0005.99,0002.71,0001.96
2022-12-07 11:08:00,,0826.2,5.00,0.00,22.0,20.6,00.0,30.9,23.8,09.7,0000.0,0005.89,0002.65,0001.97
2022-12-07 11:09:00,,0826.2,5.00,0.00,22.0,20.5,00.0,30.9,23.8,09.7,0000.0,0005.55,0002.62,0001.98
2022-12-07 11:10:00,,0826.2,4.99,0.00,22.0,20.5,00.0,30.9,23.8,09.7,0000.0,0005.95,0002.59,0001.97
2022-12-07 11:11:00,,0826.2,5.00,0.00,22.0,20.5,00.0,30.9,23.8,09.7,0000.0,0006.21,0002.55,0001.97
2022-12-07 11:12:00,,0826.1,5.01,0.00,21.9,20.5,00.0,30.9,23.8,09.7,0000.0,0006.50,0002.55,0001.97
2022-12-07 11:13:00,,0826.2,5.01,0.00,21.9,20.5,00.0,30.9,23.8,09.7,0000.0,0006.56,0002.54,0001.97
2022-12-07 11:14:00,,0826.2,5.00,0.00,21.9,20.4,00.0,30.9,23.7,09.7,0000.0,0006.70,0002.52,0001.95
2022-12-07 11:15:00,,0826.1,5.00,0.00,21.9,20.4,00.0,30.9,23.7,09.7,0000.0,0006.68,0002.55,0001.94
2022-12-07 11:16:00,,0826.2,5.00,0.00,21.9,20.4,00.0,30.9,23.7,09.7,0000.0,0006.78,0002.55,0001.93
2022-12-07 11:17:00,,0826.2,5.00,0.00,21.9,20.3,00.0,30.9,23.7,09.8,0000.0,0006.82,0002.58,0001.93
2022-12-07 11:18:00,,0826.2,4.99,0.00,21.9,20.3,00.0,30.9,23.6,09.8,0000.0,0006.24,0002.61,0001.93
2022-12-07 11:19:00,,0826.2,5.00,0.00,21.8,20.2,00.0,30.8,23.6,09.7,0000.0,0006.01,0002.58,0001.91
2022-12-07 11:20:00,,0826.2,5.00,0.00,21.8,20.3,00.0,30.8,23.6,09.7,0000.0,0006.53,0002.59,0001.89
2022-12-07 11:21:00,,0826.2,5.01,0.00,21.8,20.8,00.0,30.8,23.7,09.7,0000.0,0007.15,0002.60,0001.88
2022-12-07 11:22:00,,0826.2,5.00,0.00,21.9,21.8,00.0,30.7,23.9,09.7,0000.0,0006.62,0002.58,0001.86
2022-12-07 11:23:00,,0826.2,5.00,0.00,22.0,22.0,00.0,30.8,24.0,09.7,0000.0,0006.32,0002.58,0001.85
2022-12-07 11:24:00,,0826.2,4.99,0.00,22.1,21.7,00.0,30.8,24.0,09.7,0000.0,0006.35,0002.64,0001.85
2022-12-07 11:25:00,,0826.1,5.00,0.00,22.0,21.4,00.0,30.9,24.0,09.7,0000.0,0006.11,0002.66,0001.85
2022-12-07 11:26:00,,0826.1,5.00,0.00,22.0,21.1,00.0,30.9,23.9,09.7,0000.0,0005.97,0002.62,0001.84
2022-12-07 11:27:00,,0826.1,5.00,0.00,22.0,20.9,00.0,30.9,23.9,09.7,0000.0,0005.99,0002.62,0001.83
2022-12-07 11:28:00,,0826.1,4.99,0.00,22.0,20.8,00.0,30.9,23.9,09.7,0000.0,0005.83,0002.57,0001.82
2022-12-07 11:29:00,,0826.2,5.01,0.00,22.0,20.8,00.0,30.9,23.9,09.7,0000.0,0005.72,0002.52,0001.82
2022-12-07 11:30:00,,0826.2,5.01,0.00,22.0,20.7,00.0,30.9,23.8,09.7,0000.0,0005.77,0002.55,0001.82
2022-12-07 11:31:00,,0826.1,5.00,0.00,22.0,20.7,00.0,30.9,23.8,09.7,0000.0,0005.71,0002.56,0001.84
2022-12-07 11:32:00,,0826.2,5.00,0.00,22.0,20.6,00.0,30.9,23.8,09.7,0000.0,0004.50,0002.52,0001.84
2022-12-07 11:33:00,,0826.2,5.00,0.00,22.0,20.5,00.0,30.9,23.8,09.7,0000.0,0004.55,0002.55,0001.86
2022-12-07 11:34:00,,0826.2,4.99,0.00,21.9,20.5,00.0,30.9,23.8,09.7,0000.0,0004.56,0002.55,0001.87
2022-12-07 11:35:00,,0826.1,4.99,0.00,21.9,20.5,00.0,30.9,23.7,09.7,0000.0,0004.37,0002.51,0001.87
2022-12-07 11:36:00,,0826.2,5.00,0.00,21.9,20.4,00.0,30.9,23.7,09.7,0000.0,0004.86,0002.47,0001.89
2022-12-07 11:37:00,,0826.2,5.00,0.00,21.9,20.4,00.0,30.9,23.7,09.7,0000.0,0005.63,0002.50,0001.91
2022-12-07 11:38:00,,0826.2,5.00,0.00,21.9,20.4,00.0,30.9,23.7,09.8,0000.0,0006.72,0002.53,0001.93
2022-12-07 11:39:00,,0826.2,5.00,0.00,21.9,20.4,00.0,30.9,23.7,09.8,0000.0,0006.82,0002.57,0001.94
2022-12-07 11:40:00,,0826.2,5.00,0.00,21.9,20.4,00.0,30.9,23.7,09.8,0000.0,0006.85,0002.59,0001.96
2022-12-07 11:41:00,,0826.2,5.01,0.00,21.9,20.7,00.0,30.8,23.7,09.8,0000.0,0006.69,0002.57,0001.97
2022-12-07 11:42:00,,0826.3,5.00,0.00,22.0,21.7,00.0,30.8,23.9,09.7,0000.0,0006.67,0002.56,0001.97
2022-12-07 11:43:00,,0826.4,5.00,0.00,22.1,22.2,00.0,30.8,24.1,09.7,0000.0,0006.64,0002.58,0001.96
2022-12-07 11:44:00,,0826.5,4.99,0.00,22.1,21.9,00.0,30.8,24.1,09.7,0000.0,0006.45,0002.58,0001.97
2022-12-07 11:45:00,,0826.4,4.99,0.00,22.1,21.6,00.0,30.9,24.0,09.7,0000.0,0006.67,0002.63,0001.98
2022-12-07 11:46:00,,0826.5,5.01,0.00,22.1,21.4,00.0,30.9,24.0,09.6,0000.0,0007.86,0002.67,0001.98
2022-12-07 11:47:00,,0826.4,5.00,0.00,22.1,21.2,00.0,30.9,24.0,09.6,0000.0,0008.06,0002.73,0001.98
2022-12-07 11:48:00,,0826.3,5.00,0.00,22.1,21.0,00.0,30.9,24.0,09.6,0000.0,0007.55,0002.76,0001.97
2022-12-07 11:49:00,,0826.3,5.00,0.00,22.1,21.0,00.0,31.0,24.0,09.7,0000.0,0006.66,0002.74,0001.96
2022-12-07 11:50:00,,0826.3,5.00,0.00,22.1,20.9,00.0,31.0,23.9,09.7,0000.0,0006.91,0002.74,0001.96
2022-12-07 11:51:00,,0826.4,5.00,0.00,22.1,20.9,00.0,31.0,23.9,09.7,0000.0,0007.28,0002.71,0001.94
2022-12-07 11:52:00,,0826.4,4.99,0.00,22.1,20.8,00.0,31.0,23.9,09.7,0000.0,0007.30,0002.71,0001.93
2022-12-07 11:53:00,,0826.5,5.00,0.00,22.1,20.8,00.0,31.0,23.9,09.7,0000.0,0007.40,0002.74,0001.94
2022-12-07 11:54:00,,0826.4,5.00,0.00,22.0,20.8,00.0,31.0,23.9,09.7,0000.0,0007.62,0002.75,0001.94
2022-12-07 11:55:00,,0826.5,5.01,0.00,22.0,20.7,00.0,31.0,23.9,09.7,0000.0,0007.67,0002.75,0001.95
2022-12-07 11:56:00,,0826.5,5.00,0.00,22.0,20.6,00.0,31.0,23.8,09.7,0000.0,0007.67,0002.70,0001.93
2022-12-07 11:57:00,,0826.5,5.00,0.00,22.0,20.5,00.0,31.0,23.8,09.7,0000.0,0006.55,0002.65,0001.93
2022-12-07 11:58:00,,0826.5,5.00,0.00,22.0,20.5,00.0,31.0,23.8,09.7,0000.0,0006.46,0002.61,0001.92
2022-12-07 11:59:00,,0826.5,5.00,0.00,22.0,20.4,00.0,30.9,23.8,09.7,0000.0,0006.45,0002.57,0001.93
